Terminal Aerodrome Forecast
Issued by NWS Mt. Holly, NJ

Home | Current Version | Previous Version | Text Only | Print | Product List | Glossary On
Versions: 1 2 3 4 5 6 7 8 9 10 11 12 13 14 15 16 17 18 19 20 21 22 23 24 25 26 27 28 29 30 31 32 33 34 35 36 37 38 39 40 41 42 43 44 45 46
000
FTAK31 PANC 221731
TAFABE
TAF
PABE 221731Z 2218/2318 21008KT P6SM -SHRA SCT008 OVC015
      TEMPO 2218/2222 SCT015 OVC040
     FM231000 28011KT 3SM BR OVC005=

USA.gov is the U.S. government's official web portal to all federal, state and local government web resources and services.